Meteo Giornale » Osservazioni meteo Stati Uniti (USA) » Everett Snohomish
ore: 19:53 - Osservazioni Meteo Everett Snohomish
Lat. 47° 55' N Lon. 122° 16' W Alt. 184 metri s.l.m.
18 °C
Molto Nuvoloso
Temp. 24 Ore
13 °C
21 °C
Sud/Sud-Est
20.3 Km/h
Dew point 12 °C
Umidità 67 %
Visibilità 10 Km
Il sole sorge alle ore 06:27
Il sole tramonta alle ore 19:50
| Data e Ora | Cielo e Fenomeni | T °C | DP °C | Um. % | Pres. hPa | Vis. km | Vento km/h | |
|---|---|---|---|---|---|---|---|---|
| Oggi h: 19:53 | Molto Nuvoloso | 18 | 12 | 67 | 1009 | 10 | S/SE 20.3 | |
| Oggi h: 18:53 | Coperto | 18 | 12 | 67 | 1009 | 10 | S 22.2 | |
| Oggi h: 17:53 | Molto Nuvoloso | 19 | 12 | 63 | 1009 | 10 | S/SE 22.2 | |
| Oggi h: 16:53 | Nuvoloso | 19 | 12 | 63 | 1009 | 10 | S/SE 18.5 | |
| Oggi h: 15:53 | Coperto | 20 | 12 | 59 | 1009 | 10 | S 24 | |
| Oggi h: 14:53 | Coperto | 20 | 12 | 59 | 1009 | 10 | S 16.7 | |
| Oggi h: 13:53 | Molto Nuvoloso | 21 | 12 | 56 | 1010 | 10 | S 16.7 | |
| Oggi h: 12:53 | Molto Nuvoloso | 19 | 12 | 63 | 1010 | 10 | N 11.1 | |
| Oggi h: 12:00 | Coperto | 18 | 13 | 72 | 1010 | 10 | S 24 | |
| Oggi h: 11:53 | Coperto | 18 | 12 | 67 | 1010 | 10 | S 18.5 | |
| Oggi h: 11:18 | Coperto | 17 | 13 | 77 | 1010 | 10 | S 18.5 | |
| Oggi h: 10:53 | Coperto | 16 | 12 | 77 | 1010 | 10 | S 18.5 | |
| Oggi h: 09:53 | Coperto | 16 | 13 | 82 | 1010 | 10 | S 18.5 | |
| Oggi h: 08:53 | Coperto | 14 | 13 | 93 | 1010 | 10 | S 14.8 | |
| Oggi h: 08:06 | Molto Nuvoloso | 14 | 12 | 87 | 1010 | 10 | S 24 | |
| Oggi h: 07:53 | Sereno | 14 | 11 | 82 | 1010 | 10 | S/SO 13 | |
| Oggi h: 06:53 | Sereno | 13 | 11 | 87 | 1009 | 10 | S 9.3 | |
| Oggi h: 05:53 | Sereno | 13 | 11 | 87 | 1009 | 10 | S 9.3 | |
| Oggi h: 04:53 | Sereno | 13 | 10 | 81 | 1009 | 10 | N 0 | |
| Oggi h: 03:53 | Sereno | 13 | 10 | 81 | 1009 | 10 | N 0 | |
| Oggi h: 02:53 | Sereno | 14 | 11 | 82 | 1009 | 10 | N 0 | |
| Oggi h: 01:53 | Sereno | 13 | 11 | 87 | 1009 | 10 | N 0 | |
| Oggi h: 00:53 | Sereno | 13 | 11 | 87 | 1009 | 10 | N 0 | |
| Ieri h: 23:53 | Sereno | 14 | 11 | 82 | 1009 | 10 | N 7.4 | |
| Ieri h: 22:53 | Sereno | 16 | 10 | 67 | 1009 | 10 | N 5.5 | |
| Ieri h: 21:53 | Sereno | 16 | 10 | 67 | 1009 | 10 | N 5.5 | |
| Ieri h: 20:53 | Sereno | 17 | 11 | 67 | 1009 | 10 | N 7.4 | |



